Location: La Pernelle
(49.6188°N, 1.2999°W)
Time: 10:13:50
(UTC+00:00)

Cosmos 292 Rocket - Pass Details

Date: 12 June 2021
Orbit: 674 x 693 km, 74.0° (Epoch: 27 July)

Event Time Altitude Azimuth Distance (km) Brightness Sun altitude
Exits shadow 21:32:52 - 189° (S) 2,712 6.4 -9.7°
Reaches altitude 10° 21:34:20 10° 186° (S) 2,140 5.9 -9.8°
Maximum altitude 21:39:03 57° 108° (ESE) 810 3.9 -10.3°
Drops below altitude 10° 21:43:47 10° 30° (NNE) 2,146 6.7 -10.7°
Sets 21:46:08 0° 27° (NNE) 3,063 7.6 -10.9°
